Location: Huntsville
(41.2590°N, 111.7678°W)
Time: 19:11:22
(UTC+00:00)

Explorer 7 - Pass Details

Date: 18 June 2021
Orbit: 484 x 676 km, 50.3° (Epoch: 30 July)

Event Time Altitude Azimuth Distance (km) Brightness Sun altitude
Rises 11:09:42 0° 301° (WNW) 2,906 10.3 -7.5°
Reaches altitude 10° 11:12:06 10° 298° (WNW) 1,965 9.4 -7.1°
Maximum altitude 11:16:32 60° 219° (SW) 667 7.0 -6.5°
Drops below altitude 10° 11:20:40 10° 139° (SE) 1,833 9.5 -5.9°
Sets 11:22:50 0° 135° (SE) 2,691 10.4 -5.6°
